Location: ????????
(55.0559°N, 39.1270°E)
Time: 02:13:02
(UTC+00:00)

Cosmos 2016 Rocket - Pass Details

Date: 15 November 2025
Orbit: 946 x 999 km, 83.0° (Epoch: 12 December)

Event Time Altitude Azimuth Distance (km) Brightness Sun altitude
Rises 01:35:00 0° 348° (NNW) 3,737 7.0 -28.3°
Reaches altitude 10° 01:37:33 10° 347° (NNW) 2,783 6.3 -28.0°
Maximum altitude 01:43:57 79° 263° (W) 1,022 3.9 -27.1°
Drops below altitude 10° 01:50:16 10° 178° (S) 2,746 6.3 -26.2°
Sets 01:52:45 0° 177° (S) 3,684 7.0 -25.8°
